[[{"header":{"parameterUnit":"m.s-1","parameterCategory":1,"la1":30.2991,"la2":30.254,"lo1":-89.0895,"lo2":-89.0444,"dy":0.0017,"dx":0.0017,"nx":28,"ny":28,"refTime":"2025-04-13T03:00:00:Z","depth":0,"parameterNumber":2,"parameterNumberName":"U-component_of_WINDS"},"data":[0,0,0,0,0,0,0,0,0,0,0,0,0,0,0,0,0,0,0,0,0,0,0,0,0,0,0,0,0,0,0,0,0,0,0,0,0,0,0,0,0,0,0,0,0,0,0,0,0,0,0,0,0,0,0,0,0,0,-1.1864,-1.1864,0,-1.1835,-1.1835,-1.1834,-1.1828,-1.1829,-1.1829,-1.1829,-1.18,-1.1799,-1.1798,0,0,0,0,0,0,0,0,0,0,0,0,0,-1.1915,-1.1914,-1.1864,-1.1864,-1.1863,-1.1835,-1.1835,-1.1834,-1.1828,-1.1829,-1.1829,-1.1829,-1.18,-1.1799,-1.1798,0,0,0,0,0,0,0,0,0,0,0,0,0,-1.189,-1.1914,-1.1864,-1.1857,-1.1856,-1.1835,-1.1835,-1.1834,-1.1828,-1.1829,-1.1829,-1.1829,-1.1801,-1.1799,-1.1798,-1.1782,0,0,-1.1793,-1.1793,0,0,0,0,0,0,0,0,-1.1892,-1.1888,-1.1858,-1.1857,-1.1856,-1.1836,-1.1842,-1.1817,-1.1828,-1.1839,-1.1829,-1.1829,-1.1812,-1.1809,-1.1803,-1.1781,-1.178,-1.1793,-1.1792,-1.1792,-1.1791,0,0,0,0,0,0,0,-1.1893,-1.1889,-1.1853,-1.1858,-1.1857,-1.1855,-1.1852,-1.1837,-1.1824,-1.1838,-1.1837,-1.1834,-1.1811,-1.1805,-1.1802,-1.1779,-1.1793,-1.1792,-1.1791,-1.179,-1.1742,-1.1742,0,0,0,0,0,0,-1.1896,-1.1891,-1.1853,-1.1852,-1.1875,-1.1854,-1.1851,-1.1842,-1.1824,-1.1821,-1.1834,-1.1834,-1.1807,-1.1804,-1.1801,-1.1782,-1.1792,-1.179,-1.1789,-1.1743,-1.1742,-1.1742,0,0,0,0,0,0,-1.1897,-1.1893,-1.1855,-1.1871,-1.1866,-1.1853,-1.1843,-1.1841,-1.1835,-1.1821,-1.1818,-1.183,-1.1807,-1.1803,-1.1787,-1.178,-1.179,-1.1788,-1.1743,-1.1743,-1.1742,-1.1742,0,0,0,0,0,0,-1.1899,-1.1893,-1.1887,-1.1871,-1.1865,-1.184,-1.1843,-1.184,-1.1832,-1.1832,-1.1816,-1.1814,-1.1807,-1.1789,-1.1785,-1.1779,-1.1787,-1.1744,-1.1743,-1.1742,-1.1743,-1.1742,-1.1741,0,0,0,0,0,-1.1901,-1.1888,-1.1887,-1.1882,-1.1857,-1.184,-1.1837,-1.1829,-1.1832,-1.1825,-1.1816,-1.1814,-1.1782,-1.1787,-1.1783,-1.1776,-1.1744,-1.1743,-1.1742,-1.1743,-1.1742,-1.1741,0,0,0,0,0,0,-1.1904,-1.1886,-1.1884,-1.1866,-1.1855,-1.1839,-1.1831,-1.1828,-1.1816,-1.1816,-1.1807,-1.1804,-1.1788,-1.178,-1.1787,-1.176,-1.1763,-1.1762,-1.1765,-1.1764,-1.1763,-1.1765,-1.1786,0,0,0,0,0,-1.1903,-1.189,-1.1875,-1.1861,-1.1855,-1.1844,-1.1836,-1.1831,-1.1819,-1.1814,-1.1804,-1.1793,-1.178,-1.1772,-1.1759,-1.1742,-1.1738,-1.1735,-1.1734,-1.1733,-1.1731,-1.1722,-1.172,-1.1739,-1.1739,-1.1739,0,0,-1.19,-1.1889,-1.1881,-1.1861,-1.1852,-1.1839,-1.184,-1.1826,-1.1817,-1.1812,-1.1796,-1.1788,-1.1775,-1.1758,-1.175,-1.1751,-1.1726,-1.1732,-1.1732,-1.173,-1.1721,-1.1719,-1.1717,-1.1739,-1.1739,-1.1739,0,0,-1.1888,-1.1878,-1.1865,-1.1855,-1.1841,-1.1834,-1.1831,-1.1815,-1.181,-1.1793,-1.179,-1.1778,-1.1757,-1.1747,-1.1739,-1.1724,-1.1722,-1.1721,-1.1715,-1.1706,-1.1704,-1.1703,-1.1697,-1.1695,-1.1719,-1.1719,-1.1719,0,-1.1886,-1.1867,-1.1859,-1.1845,-1.1837,-1.1832,-1.1818,-1.181,-1.1792,-1.1786,-1.1788,-1.176,-1.1751,-1.1732,-1.1728,-1.1722,-1.1718,-1.1722,-1.1705,-1.1704,-1.1702,-1.1697,-1.1695,-1.1719,-1.1719,-1.1719,-1.1719,0,-1.1865,-1.1851,-1.1843,-1.1825,-1.1816,-1.1802,-1.1793,-1.1784,-1.178,-1.1773,-1.1756,-1.1745,-1.173,-1.1725,-1.1721,-1.1705,-1.1706,-1.1707,-1.171,-1.17,-1.1695,-1.1693,-1.1719,-1.1719,-1.1719,-1.1719,0,0,-1.1854,-1.1832,-1.1829,-1.1821,-1.1805,-1.1794,-1.1781,-1.1766,-1.1759,-1.1747,-1.1736,-1.1718,-1.1718,-1.1709,-1.1704,-1.1696,-1.1684,-1.1697,-1.1697,-1.1695,-1.1666,-1.1665,-1.1663,-1.1683,-1.1683,-1.1682,-1.1667,0,-1.184,-1.1815,-1.1808,-1.1787,-1.1774,-1.177,-1.1758,-1.1747,-1.174,-1.1729,-1.1721,-1.1708,-1.171,-1.1704,-1.1696,-1.1688,-1.1678,-1.1689,-1.1672,-1.1672,-1.1675,-1.166,-1.1659,-1.1645,-1.1665,-1.1664,-1.1664,0,-1.182,-1.1807,-1.1785,-1.177,-1.1764,-1.1754,-1.174,-1.1729,-1.1716,-1.1712,-1.1702,-1.1698,-1.1684,-1.1689,-1.167,-1.1677,-1.167,-1.1665,-1.1664,-1.1662,-1.1667,-1.1656,-1.164,-1.1638,-1.1661,-1.1661,-1.1661,0,-1.1813,-1.1791,-1.1774,-1.1768,-1.175,-1.1743,-1.1735,-1.1723,-1.1715,-1.1702,-1.1697,-1.1684,-1.1676,-1.1666,-1.1659,-1.1663,-1.164,-1.1644,-1.1636,-1.1636,-1.163,-1.1631,-1.1612,-1.1627,-1.1627,-1.1627,-1.1627,0,-1.1798,-1.1784,-1.1771,-1.1761,-1.1746,-1.1738,-1.1723,-1.1716,-1.1705,-1.1694,-1.1689,-1.1679,-1.167,-1.1658,-1.1653,-1.1638,-1.1635,-1.1631,-1.1629,-1.163,-1.1631,-1.1625,-1.1626,-1.1627,-1.1627,-1.1627,-1.1627,0,-1.1788,-1.1778,-1.176,-1.1745,-1.1741,-1.173,-1.1717,-1.1708,-1.1701,-1.1686,-1.1683,-1.1672,-1.1658,-1.165,-1.1632,-1.1629,-1.1612,-1.1611,-1.1616,-1.1615,-1.1607,-1.1607,-1.1583,-1.1579,-1.1598,-1.1598,-1.1598,0,-1.1778,-1.1767,-1.1751,-1.1742,-1.1735,-1.1722,-1.1713,-1.1705,-1.1696,-1.1681,-1.1673,-1.1659,-1.1647,-1.1625,-1.1616,-1.1603,-1.1601,-1.1594,-1.1599,-1.1601,-1.1601,-1.1601,-1.16,-1.1593,-1.1593,-1.1592,-1.1592,0,-1.1762,-1.1757,-1.1744,-1.173,-1.1719,-1.1708,-1.1696,-1.169,-1.168,-1.167,-1.1656,-1.1647,-1.1629,-1.1615,-1.1601,-1.1594,-1.1591,-1.1591,-1.1588,-1.1589,-1.1592,-1.159,-1.1612,-1.1591,-1.1591,-1.1591,-1.1591,-1.1591,-1.1751,-1.1741,-1.1728,-1.1713,-1.1704,-1.1693,-1.1683,-1.1674,-1.1662,-1.1646,-1.1643,-1.1628,-1.1616,-1.1597,-1.1589,-1.1578,-1.1579,-1.1575,-1.1574,-1.1573,-1.1572,-1.1594,-1.1575,-1.1575,-1.1575,-1.1575,-1.1575,0,-1.1734,-1.1725,-1.1712,-1.1695,-1.1684,-1.1683,-1.167,-1.1661,-1.1647,-1.1636,-1.1624,-1.1608,-1.1595,-1.1584,-1.1571,-1.1563,-1.1562,-1.156,-1.156,-1.1558,-1.1572,-1.1576,-1.1561,-1.1561,-1.1561,-1.1561,-1.1561,-1.1561,-1.1724,-1.1707,-1.1701,-1.1679,-1.1671,-1.1655,-1.1648,-1.1638,-1.1629,-1.1611,-1.1599,-1.1592,-1.1582,-1.1567,-1.1555,-1.1553,-1.1547,-1.1546,-1.1543,-1.1556,-1.1557,-1.1559,-1.1562,-1.1545,-1.1545,-1.1529,-1.1529,-1.1529]},{"header":{"parameterUnit":"m.s-1","parameterCategory":1,"la1":30.2991,"la2":30.254,"lo1":-89.0895,"lo2":-89.0444,"dy":0.0017,"dx":0.0017,"nx":28,"ny":28,"refTime":"2025-04-13T03:00:00:Z","depth":0,"parameterNumber":3,"parameterNumberName":"V-component_of_WINDS"},"data":[0,0,0,0,0,0,0,0,0,0,0,0,0,0,0,0,0,0,0,0,0,0,0,0,0,0,0,0,0,0,0,0,0,0,0,0,0,0,0,0,0,0,0,0,0,0,0,0,0,0,0,0,0,0,0,0,0,0,3.7799,3.7799,0,3.7799,3.7799,3.7799,3.7812,3.7813,3.7813,3.7813,3.7811,3.781,3.781,0,0,0,0,0,0,0,0,0,0,0,0,0,3.781,3.781,3.7799,3.7799,3.7799,3.7799,3.7799,3.7799,3.7812,3.7813,3.7813,3.7814,3.7811,3.781,3.781,0,0,0,0,0,0,0,0,0,0,0,0,0,3.7807,3.7809,3.7799,3.7806,3.7807,3.7799,3.7799,3.7799,3.7812,3.7813,3.7813,3.7814,3.7811,3.781,3.781,3.7795,0,0,3.7808,3.7807,0,0,0,0,0,0,0,0,3.7807,3.7806,3.7805,3.7805,3.7806,3.7806,3.7802,3.7797,3.7812,3.781,3.7813,3.7814,3.7808,3.7808,3.7807,3.7795,3.7794,3.7808,3.7807,3.7807,3.7807,0,0,0,0,0,0,0,3.7807,3.7807,3.7799,3.7805,3.7806,3.7808,3.7809,3.7801,3.7806,3.781,3.7811,3.7811,3.7809,3.7807,3.7807,3.7794,3.7808,3.7807,3.7807,3.7806,3.7771,3.7771,0,0,0,0,0,0,3.7807,3.7807,3.7799,3.7799,3.7808,3.7808,3.7808,3.7806,3.7806,3.7807,3.7811,3.7812,3.7808,3.7807,3.7807,3.779,3.7807,3.7806,3.7806,3.7772,3.7771,3.777,0,0,0,0,0,0,3.7807,3.7806,3.7799,3.7803,3.7802,3.7807,3.7804,3.7805,3.7804,3.7807,3.7807,3.7808,3.7809,3.7808,3.7798,3.779,3.7806,3.7806,3.7772,3.7772,3.7771,3.7757,0,0,0,0,0,0,3.7807,3.7806,3.7801,3.7803,3.7802,3.7791,3.7804,3.7805,3.7803,3.7804,3.7804,3.7805,3.7809,3.7799,3.7797,3.779,3.7805,3.7773,3.7772,3.7771,3.7758,3.7755,3.7753,0,0,0,0,0,3.7808,3.7796,3.78,3.7799,3.7796,3.779,3.779,3.7795,3.7802,3.7797,3.7799,3.7805,3.7791,3.7798,3.7796,3.7788,3.7774,3.7772,3.7771,3.7759,3.7756,3.7753,0,0,0,0,0,0,3.7791,3.7796,3.7801,3.779,3.779,3.7793,3.7786,3.7792,3.7789,3.779,3.7796,3.7796,3.7786,3.7786,3.7793,3.7774,3.7784,3.7782,3.7775,3.7772,3.777,3.777,3.7805,0,0,0,0,0,3.7787,3.7783,3.7787,3.7776,3.7776,3.7781,3.7779,3.7783,3.7783,3.7783,3.7784,3.7783,3.7778,3.7775,3.7771,3.7758,3.7758,3.7752,3.7749,3.7748,3.7746,3.774,3.7737,3.7766,3.7766,3.7766,0,0,3.7777,3.7779,3.7775,3.7773,3.7774,3.7769,3.7781,3.7775,3.7771,3.7781,3.7773,3.7774,3.7773,3.7762,3.7757,3.7762,3.7738,3.7746,3.7744,3.7744,3.7739,3.7736,3.7733,3.7765,3.7766,3.7766,0,0,3.7756,3.7757,3.7749,3.775,3.7751,3.7754,3.7752,3.7754,3.7756,3.7748,3.7755,3.7751,3.7743,3.7742,3.7741,3.7721,3.7727,3.772,3.7708,3.7702,3.77,3.7698,3.7692,3.7689,3.7718,3.7718,3.7718,0,3.7743,3.7737,3.7744,3.7738,3.7737,3.7747,3.7739,3.7739,3.7738,3.7737,3.7743,3.7734,3.7734,3.7723,3.7719,3.7717,3.7715,3.772,3.77,3.7698,3.7696,3.769,3.7688,3.7717,3.7718,3.7718,3.7718,0,3.7722,3.7717,3.7711,3.7711,3.7709,3.7702,3.7708,3.7705,3.771,3.7713,3.7705,3.7705,3.7702,3.77,3.7704,3.769,3.7693,3.7699,3.7708,3.7693,3.7687,3.7685,3.7716,3.7717,3.7717,3.7717,0,0,3.769,3.7696,3.7693,3.7694,3.7696,3.7693,3.7686,3.7684,3.7682,3.7681,3.7676,3.767,3.7676,3.7674,3.7678,3.7673,3.7659,3.768,3.768,3.7676,3.7644,3.764,3.7637,3.7662,3.7662,3.7662,3.7645,0,3.7671,3.7661,3.7668,3.7657,3.7654,3.7663,3.7658,3.7658,3.7661,3.7658,3.7661,3.7657,3.7664,3.7664,3.7659,3.7661,3.7652,3.7663,3.7658,3.7657,3.7658,3.7635,3.763,3.7614,3.7643,3.7642,3.7642,0,3.7647,3.7647,3.7636,3.764,3.7639,3.7634,3.7633,3.763,3.7631,3.7633,3.7632,3.7638,3.7632,3.7641,3.7633,3.764,3.7638,3.7639,3.7639,3.7639,3.7649,3.7634,3.7609,3.7607,3.7638,3.7639,3.7639,0,3.7627,3.7623,3.7617,3.7617,3.7621,3.7617,3.7619,3.762,3.7619,3.7618,3.7618,3.7615,3.7614,3.7612,3.7617,3.7624,3.7609,3.7618,3.7611,3.7611,3.7607,3.7607,3.7581,3.7605,3.7605,3.7605,3.7605,0,3.7605,3.7598,3.7608,3.7603,3.7596,3.7604,3.7596,3.7598,3.76,3.7596,3.7604,3.76,3.7607,3.7604,3.7608,3.7601,3.76,3.7602,3.7603,3.7601,3.7601,3.7601,3.7602,3.7605,3.7605,3.7605,3.7605,0,3.758,3.7587,3.758,3.7585,3.7586,3.7581,3.7585,3.7581,3.7585,3.758,3.758,3.7585,3.7582,3.7587,3.7584,3.7586,3.7577,3.758,3.7577,3.7578,3.7571,3.7571,3.7544,3.7541,3.7566,3.7566,3.7565,0,3.7566,3.7561,3.7566,3.7565,3.7567,3.7564,3.7563,3.7571,3.7569,3.7571,3.7567,3.7565,3.7564,3.7558,3.7561,3.7559,3.7562,3.7553,3.7562,3.7561,3.7563,3.7564,3.7563,3.7551,3.7551,3.755,3.755,0,3.7541,3.7544,3.7543,3.7544,3.7543,3.7543,3.7544,3.7542,3.755,3.7548,3.7546,3.7545,3.7543,3.7541,3.754,3.7541,3.7547,3.7547,3.7546,3.7544,3.7543,3.7544,3.7573,3.7548,3.7548,3.7548,3.7548,3.7548,3.7522,3.7518,3.7522,3.752,3.7522,3.7523,3.752,3.7524,3.7523,3.7522,3.7526,3.7523,3.7525,3.7525,3.7525,3.7522,3.7527,3.7524,3.7523,3.7523,3.7522,3.7543,3.7522,3.7522,3.7522,3.7522,3.7522,0,3.7497,3.75,3.7499,3.7501,3.75,3.7507,3.7508,3.7507,3.7504,3.7506,3.7505,3.7502,3.7501,3.7504,3.7503,3.7501,3.7503,3.75,3.75,3.7501,3.7518,3.752,3.7498,3.7498,3.7498,3.7498,3.7498,3.7498,3.7484,3.748,3.7484,3.748,3.7483,3.748,3.7481,3.7482,3.7483,3.748,3.748,3.7482,3.7485,3.7484,3.7483,3.7484,3.7483,3.7479,3.7481,3.7497,3.7499,3.7502,3.7504,3.7479,3.7479,3.7465,3.7464,3.7464]}]]